Chicago Executive, IL

1:50 AM CST on December 10, 2019 (GMT -0600)
Chicago Executive

Weather History for KPWK - September, 2019

Change the Weather History Date:

Saturday, September 7, 2019

  Actual Average Record
Temperature  
Mean Temperature 68 °F 68 °F  
Max Temperature 80 °F 78 °F 89 °F (2005)
Min Temperature 55 °F 58 °F 51 °F (2011)
Degree Days  
Heating Degree Days 0 1  
Month to date heating degree days 1 7  
Since 1 July heating degree days 1 17  
Cooling Degree Days 2 4  
Month to date cooling degree days 27 33  
Year to date cooling degree days 834 730  
Growing Degree Days 18 (Base 50)    
Moisture  
Dew Point 56 °F    
Average Humidity 69    
Maximum Humidity 89    
Minimum Humidity 47    
Precipitation  
Precipitation 0.00 in 0.11 in 0.86 in (1998)
Month to date precipitation 0.41 0.75  
Year to date precipitation 29.73 23.23  
Sea Level Pressure  
Sea Level Pressure 30.05 in    
Wind  
Wind Speed 4 mph ()    
Max Wind Speed 15 mph    
Max Gust Speed 23 mph    
Visibility 10.0 miles    
Events      
T = Trace of Precipitation, MM = Missing Value Source: Averaged Metar Reports

Daily Weather History Graph

Daily Weather History Graph

Search for Another Location

Airport or City:

Astronomy

Sep. 07, 2019 Rise Set
Actual Time 6:23 AM CDT 7:15 PM CDT
Civil Twilight 5:54 AM CDT 7:43 PM CDT
Nautical Twilight 5:20 AM CDT 8:17 PM CDT
Astronomical Twilight 4:45 AM CDT 8:52 PM CDT
Moon 3:36 PM CDT (9/7) 12:10 AM CDT (9/7)
Length of Visible Light 13h 49m
Length of Day
12h 52m
Waxing Gibbous, 66% of the Moon is Illuminated
Sep 7
Waxing Gibbous
Sep 13
Full
Sep 21
Last Quarter
Sep 28
New
Oct 5
First Quarter

Hourly Weather History & Observations

Time (CDT) Temp. Dew Point Humidity Pressure Visibility Wind Dir Wind Speed Gust Speed Precip Events Conditions
12:52 AM 62.1 °F 54.0 °F 75% 30.07 in 10.0 mi NW 4.6 mph - N/A   Scattered Clouds
1:52 AM 60.1 °F 55.0 °F 83% 30.06 in 10.0 mi Calm Calm - N/A   Clear
2:52 AM 59.0 °F 54.0 °F 83% 30.06 in 10.0 mi Calm Calm - N/A   Clear
3:52 AM 57.9 °F 54.0 °F 87% 30.06 in 10.0 mi Calm Calm - N/A   Clear
4:52 AM 57.0 °F 54.0 °F 89% 30.06 in 10.0 mi Calm Calm - N/A   Clear
5:52 AM 55.9 °F 52.0 °F 87% 30.06 in 10.0 mi Calm Calm - N/A   Clear
6:52 AM 57.0 °F 53.1 °F 87% 30.08 in 10.0 mi Calm Calm - N/A   Clear
7:52 AM 61.0 °F 55.9 °F 83% 30.08 in 10.0 mi West 4.6 mph - N/A   Clear
8:52 AM 66.0 °F 57.0 °F 73% 30.08 in 10.0 mi West 6.9 mph - N/A   Clear
9:52 AM 70.0 °F 55.9 °F 61% 30.06 in 10.0 mi WSW 9.2 mph - N/A   Clear
10:52 AM 73.0 °F 55.9 °F 55% 30.05 in 10.0 mi West 9.2 mph - N/A   Mostly Cloudy
11:52 AM 73.9 °F 55.0 °F 52% 30.03 in 10.0 mi WSW 9.2 mph - N/A   Clear
12:52 PM 77.0 °F 55.9 °F 48% 30.02 in 10.0 mi West 8.1 mph 17.3 mph N/A   Clear
1:52 PM 79.0 °F 57.0 °F 47% 30.01 in 10.0 mi WNW 13.8 mph - N/A   Scattered Clouds
2:52 PM 79.0 °F 57.0 °F 47% 30.00 in 10.0 mi West 12.7 mph 23.0 mph N/A   Partly Cloudy
3:52 PM 78.1 °F 59.0 °F 52% 30.01 in 10.0 mi NNW 10.4 mph - N/A   Mostly Cloudy
4:52 PM 79.0 °F 57.9 °F 48% 30.01 in 10.0 mi NNW 11.5 mph - N/A   Mostly Cloudy
5:52 PM 72.0 °F 59.0 °F 64% 30.03 in 10.0 mi NE 8.1 mph - N/A   Clear
6:52 PM 70.0 °F 59.0 °F 68% 30.03 in 10.0 mi ENE 6.9 mph - N/A   Clear
7:52 PM 69.1 °F 57.9 °F 68% 30.04 in 10.0 mi NE 5.8 mph - N/A   Clear
8:52 PM 68.0 °F 59.0 °F 73% 30.05 in 10.0 mi ENE 3.5 mph - N/A   Clear
9:52 PM 66.9 °F 59.0 °F 76% 30.05 in 10.0 mi Calm Calm - N/A   Clear
10:52 PM 66.0 °F 59.0 °F 78% 30.05 in 10.0 mi East 3.5 mph - N/A   Clear
11:52 PM 66.0 °F 57.9 °F 75% 30.06 in 10.0 mi Calm Calm - N/A   Mostly Cloudy